Williston, ND

10:05 AM CST on December 13, 2019 (GMT -0600)
Sloulin International

Weather History for KISN - August, 2019

Change the Weather History Date:

Sunday, August 4, 2019

  Actual Average Record
Temperature  
Mean Temperature 75 °F 71 °F  
Max Temperature 89 °F 86 °F 104 °F (1983)
Min Temperature 60 °F 57 °F 40 °F (2009)
Degree Days  
Heating Degree Days 0 1  
Month to date heating degree days 0 4  
Since 1 June heating degree days 85 148  
Since 1 July heating degree days 15 28  
Cooling Degree Days 10 7  
Month to date cooling degree days 48 28  
Year to date cooling degree days 292 291  
Since 1 June cooling degree days 286 278  
Growing Degree Days 24 (Base 50)    
Moisture  
Dew Point 57 °F    
Average Humidity 62    
Maximum Humidity 93    
Minimum Humidity 31    
Precipitation  
Precipitation 0.10 in 0.05 in 0.78 in (1951)
Month to date precipitation 0.32 0.21  
Year to date precipitation 9.98 9.88  
Sea Level Pressure  
Sea Level Pressure 29.96 in    
Wind  
Wind Speed 8 mph (NE)    
Max Wind Speed 16 mph    
Max Gust Speed 24 mph    
Visibility 10 miles    
Events Rain    
T = Trace of Precipitation, MM = Missing Value Source: NWS Daily Summary

Daily Weather History Graph

Daily Weather History Graph

Search for Another Location

Airport or City:

Astronomy

Aug. 04, 2019 Rise Set
Actual Time 6:33 AM CDT 9:26 PM CDT
Civil Twilight 5:57 AM CDT 10:02 PM CDT
Nautical Twilight 5:11 AM CDT 10:48 PM CDT
Astronomical Twilight 4:15 AM CDT 11:44 PM CDT
Moon 10:59 AM CDT (8/4) 11:47 PM CDT (8/4)
Length of Visible Light 16h 04m
Length of Day
14h 52m
Waxing Crescent, 18% of the Moon is Illuminated
Aug 4
Waxing Crescent
Aug 7
First Quarter
Aug 15
Full
Aug 23
Last Quarter
Aug 30
New

Hourly Weather History & Observations

Time (CDT) Temp. Heat Index Dew Point Humidity Pressure Visibility Wind Dir Wind Speed Gust Speed Precip Events Conditions
12:52 AM 72.0 °F - 55.9 °F 57% 29.93 in 10.0 mi NE 4.6 mph - N/A   Clear
1:52 AM 70.0 °F - 59.0 °F 68% 29.94 in 10.0 mi NNE 8.1 mph - N/A   Clear
2:52 AM 66.0 °F - 59.0 °F 78% 29.94 in 10.0 mi North 6.9 mph - N/A   Clear
3:52 AM 66.9 °F - 60.1 °F 79% 29.94 in 10.0 mi NNE 5.8 mph - N/A   Clear
4:52 AM 63.0 °F - 59.0 °F 87% 29.97 in 10.0 mi South 3.5 mph - N/A   Clear
5:52 AM 62.1 °F - 60.1 °F 93% 29.97 in 10.0 mi North 6.9 mph - N/A   Clear
6:52 AM 63.0 °F - 60.1 °F 90% 29.97 in 10.0 mi NE 5.8 mph - N/A   Clear
7:52 AM 64.9 °F - 61.0 °F 87% 29.99 in 10.0 mi NE 3.5 mph - N/A   Clear
8:52 AM 69.1 °F - 62.1 °F 78% 30.01 in 10.0 mi NNE 9.2 mph - N/A   Clear
9:52 AM 72.0 °F - 62.1 °F 71% 30.02 in 10.0 mi ENE 4.6 mph - N/A   Clear
10:52 AM 73.0 °F - 61.0 °F 66% 30.01 in 10.0 mi NNE 10.4 mph - N/A   Clear
11:52 AM 81.0 °F 80.5 °F 54.0 °F 39% 30.01 in 10.0 mi NE 10.4 mph - N/A   Clear
12:52 PM 82.9 °F - 52.0 °F 34% 30.01 in 10.0 mi NE 12.7 mph - N/A   Clear
1:52 PM 84.0 °F 83.0 °F 55.9 °F 38% 30.01 in 10.0 mi ENE 11.5 mph 18.4 mph N/A   Partly Cloudy
2:52 PM 86.0 °F 84.0 °F 53.1 °F 32% 29.99 in 10.0 mi ESE 12.7 mph - N/A   Partly Cloudy
3:52 PM 87.1 °F 85.1 °F 54.0 °F 32% 29.97 in 10.0 mi North - - N/A   Clear
4:52 PM 87.1 °F 85.3 °F 55.0 °F 33% 29.95 in 10.0 mi Variable 3.5 mph - N/A   Clear
5:52 PM 87.1 °F 85.7 °F 55.9 °F 35% 29.93 in 10.0 mi ESE 6.9 mph - N/A   Clear
6:52 PM 87.1 °F 85.9 °F 57.0 °F 36% 29.91 in 10.0 mi ENE 10.4 mph - N/A   Clear
7:52 PM 84.9 °F 83.7 °F 55.9 °F 37% 29.90 in 10.0 mi East 8.1 mph - N/A   Clear
8:52 PM 82.0 °F 82.1 °F 59.0 °F 45% 29.90 in 10.0 mi NE 8.1 mph - N/A   Clear
9:52 PM 79.0 °F - 57.9 °F 48% 29.92 in 10.0 mi NNE 11.5 mph 24.2 mph N/A   Clear
10:52 PM 73.9 °F - 57.9 °F 57% 29.94 in 10.0 mi NNE 10.4 mph - N/A   Partly Cloudy
11:52 PM 70.0 °F - 57.0 °F 63% 29.94 in 10.0 mi NE 11.5 mph - 0.01 in Rain Light Rain